Powrót do katalogu

COSMOS 1275 DEB

AktywnyPO
NORAD 42150·DEBRIS·🇷🇺 Russia

Wystrzelony Jun 4, 1981 z Plesetsk Cosmodrome

Loading…

Następne Przeloty (najbliższe 24 godziny)

TLE

Starzejące sięSource: Space-Track

Epoka: Sep 6, 2026, 02:01 UTC

1 42150U 81053RN  26249.08434597  .00000468  00000-0  60192-3 0  9991
2 42150  83.0683  22.7809 0214626   1.4752 358.6977 13.51741754584336

Śledź COSMOS 1275 DEB w czasie rzeczywistym z AllMySat

Download on the App Store